Bismarck, ND

7:18 AM CST on February 23, 2018 (GMT -0600)
Bismarck Municipal

Weather History for KBIS - March, 2013

Change the Weather History Date:

Saturday, March 16, 2013

  Actual Average Record
Temperature  
Mean Temperature 11 °F 30 °F  
Max Temperature 19 °F 40 °F 81 °F (2012)
Min Temperature 3 °F 20 °F -11 °F (1875)
Degree Days  
Heating Degree Days 54 35  
Month to date heating degree days 658 617  
Since 1 July heating degree days 6967 7048  
Cooling Degree Days 0 0  
Month to date cooling degree days 0 0  
Year to date cooling degree days 0 0  
Moisture  
Dew Point 3 °F    
Average Humidity 74    
Maximum Humidity 86    
Minimum Humidity 61    
Precipitation  
Precipitation T in 0.03 in 0.62 in (1946)
Month to date precipitation 0.52 0.41  
Year to date precipitation 1.11 1.35  
Snow  
Snow T in 0.30 in 5.40 in (1902)
Month to date snowfall 2.2 5.0  
Since 1 July snowfall 30.8 42.5  
Snow Depth T in    
Sea Level Pressure  
Sea Level Pressure 30.28 in    
Wind  
Wind Speed 7 mph (NNE)    
Max Wind Speed 15 mph    
Max Gust Speed 19 mph    
Visibility 10 miles    
Events Snow    
T = Trace of Precipitation, MM = Missing Value Source: NWS Daily Summary

Daily Weather History Graph

Daily Weather History Graph

Search for Another Location

Airport or City:

Trip Planner

Search our weather history database for the weather conditions in past years. The results will help you decide how hot, cold, wet, or windy it might be!

Date:

Astronomy

Mar. 16, 2013 Rise Set
Actual Time 7:53 AM CDT 7:50 PM CDT
Civil Twilight 7:23 AM CDT 8:20 PM CDT
Nautical Twilight 6:47 AM CDT 8:56 PM CDT
Astronomical Twilight 6:11 AM CDT 9:32 PM CDT
Moon 10:05 AM CDT (3/16) 12:23 AM CDT (3/16)
Length of Visible Light 12h 57m
Length of Day
11h 57m
Waxing Crescent, 23% of the Moon is Illuminated
Mar 16
Waxing Crescent
Mar 19
First Quarter
Mar 27
Full
Apr 2
Last Quarter
Apr 10
New

Hourly Weather History & Observations

Time (CDT) Temp. Windchill Dew Point Humidity Pressure Visibility Wind Dir Wind Speed Gust Speed Precip Events Conditions
12:52 AM 6.1 °F -5.6 °F 1.0 °F 80% 30.27 in 8.0 mi North 6.9 mph - 0.00 in Snow Light Snow
1:14 AM 6.1 °F -4.3 °F 1.0 °F 80% 30.16 in 10.0 mi North 5.8 mph - 0.00 in   Scattered Clouds
1:52 AM 6.1 °F -6.8 °F -0.0 °F 76% 30.29 in 10.0 mi NNW 8.1 mph - 0.00 in   Clear
2:52 AM 5.0 °F -6.9 °F -0.9 °F 76% 30.30 in 10.0 mi North 6.9 mph - N/A   Clear
3:52 AM 3.9 °F -5.3 °F -0.9 °F 80% 30.31 in 10.0 mi North 4.6 mph - N/A   Clear
4:52 AM 3.9 °F -3.4 °F -0.9 °F 80% 30.32 in 10.0 mi NW 3.5 mph - N/A   Clear
5:52 AM 3.0 °F -6.4 °F -0.9 °F 84% 30.32 in 10.0 mi NNW 4.6 mph - N/A   Clear
6:52 AM 3.9 °F -5.3 °F -0.9 °F 80% 30.32 in 10.0 mi WNW 4.6 mph - N/A   Clear
7:52 AM 3.9 °F - -2.0 °F 76% 30.32 in 10.0 mi Calm Calm - N/A   Clear
8:52 AM 5.0 °F - -0.9 °F 76% 30.31 in 10.0 mi Calm Calm - N/A   Clear
9:52 AM 7.0 °F - 1.0 °F 77% 30.30 in 10.0 mi Calm Calm - N/A   Clear
10:52 AM 10.9 °F - 3.0 °F 70% 30.30 in 10.0 mi Calm Calm - N/A   Clear
11:52 AM 15.1 °F - 5.0 °F 64% 30.31 in 10.0 mi Calm Calm - N/A   Mostly Cloudy
12:01 PM 14.0 °F - 5.0 °F 67% 30.19 in 10.0 mi Calm Calm - N/A   Mostly Cloudy
12:52 PM 17.1 °F 7.6 °F 8.1 °F 68% 30.31 in 10.0 mi North 6.9 mph - N/A   Overcast
1:52 PM 17.1 °F 7.6 °F 8.1 °F 68% 30.30 in 10.0 mi North 6.9 mph - N/A   Overcast
2:52 PM 19.0 °F 11.1 °F 9.0 °F 65% 30.27 in 8.0 mi Variable 5.8 mph - 0.00 in Snow Light Snow
3:52 PM 19.0 °F 11.1 °F 9.0 °F 65% 30.28 in 9.0 mi North 5.8 mph - 0.00 in   Overcast
4:52 PM 17.1 °F 4.3 °F 7.0 °F 65% 30.28 in 10.0 mi NE 11.5 mph - N/A   Mostly Cloudy
5:02 PM 17.1 °F 2.5 °F 8.1 °F 68% 30.17 in 10.0 mi NE 15.0 mph - N/A   Mostly Cloudy
5:39 PM 15.1 °F 1.8 °F 7.0 °F 70% 30.17 in 10.0 mi NE 11.5 mph - N/A   Overcast
5:52 PM 14.0 °F 1.2 °F 6.1 °F 71% 30.30 in 10.0 mi NE 10.4 mph - N/A   Overcast
6:17 PM 14.0 °F 1.2 °F 6.1 °F 71% 30.18 in 10.0 mi NE 10.4 mph - N/A   Overcast
6:45 PM 14.0 °F 1.2 °F 6.1 °F 71% 30.18 in 10.0 mi ENE 10.4 mph - N/A   Overcast
6:52 PM 14.0 °F 1.2 °F 5.0 °F 67% 30.30 in 10.0 mi NE 10.4 mph - N/A   Overcast
7:39 PM 12.0 °F -2.0 °F 3.0 °F 67% 30.19 in 10.0 mi ENE 11.5 mph - N/A   Overcast
7:52 PM 10.9 °F -2.6 °F 3.9 °F 73% 30.31 in 10.0 mi ENE 10.4 mph - N/A   Overcast
8:52 PM 10.9 °F -4.1 °F 3.0 °F 70% 30.31 in 10.0 mi East 12.7 mph - N/A   Overcast
9:52 PM 10.9 °F -2.6 °F 3.0 °F 70% 30.31 in 10.0 mi East 10.4 mph - N/A   Overcast
10:52 PM 10.9 °F -3.4 °F 3.9 °F 73% 30.29 in 10.0 mi ESE 11.5 mph - N/A   Overcast
11:52 PM 10.9 °F -3.4 °F 3.9 °F 73% 30.26 in 10.0 mi East 11.5 mph - N/A   Overcast